Regional Weather Roundup
Issued by NWS Grand Forks, ND

Home | Current Version | Previous Version | Text Only | Print | Product List | Glossary Off
Versions: 1 2 3 4 5 6 7 8 9 10 11 12 13 14 15 16 17 18 19 20 21 22 23 24 25 26 27 28 29 30 31 32 33 34 35 36 37 38 39 40 41 42 43 44 45 46 47 48 49 50

220
ASUS43 KFGF 021331
RWRFGF
PRAIRIE TO PINES  WEATHER ROUNDUP
NATIONAL WEATHER SERVICE EASTERN NORTH DAKOTA/GRAND FORKS ND
700 AM CST FRI DEC 02 2016

 **SATELLITE DATA USED TO AUGMENT SKY COVER AT AUTOMATED STATIONS**
 *****  WEATHER ACROSS EASTERN NORTH DAKOTA  *****

CITY           SKY/WX    TMP DP  RH WIND       PRES   REMARKS
GRAND FORKS    CLOUDY    29  22  75 N6        30.21R WCI  23
GRAND FRKS AFB CLOUDY    28  22  77 NE6       30.21R WCI  22
GRAND FRKS NWS   N/A     28 N/A N/A VRB2        N/A
DEVILS LAKE    CLOUDY    28  21  75 N10       30.20R WCI  19
FARGO          CLOUDY    29  21  72 N9        30.21R WCI  20
WAHPETON ARPT  CLOUDY    28  21  74 NW10      30.22R WCI  19
$$

 ***** WEATHER ACROSS CENTRAL AND WESTERN NORTH DAKOTA  *****

CITY           SKY/WX    TMP DP  RH WIND       PRES   REMARKS
BISMARCK       CLOUDY    24  21  88 E5        30.22R WCI  18
MINOT          CLOUDY    26  20  77 CALM      30.19R
JAMESTOWN      CLOUDY    26  19  74 N8        30.20R WCI  18
MINOT AFB      CLOUDY    25  20  82 S3        30.18S
GARRISON         N/A     26  21  81 SE7       30.17R WCI  18
WILLISTON      LGT SNOW  28  24  85 CALM      30.16S FOG
DICKINSON      CLOUDY    21  19  92 S6        30.12R WCI  13
HETTINGER      CLOUDY    24  21  88 S5        30.15R WCI  18
$$

 *****  OTHER AIRPORT OBSERVATIONS IN OUR AREA  *****

CITY           SKY/WX    TMP DP  RH WIND       PRES   REMARKS
WALHALLA         N/A     27  27 100 N3        30.22R
GRAFTON AIRPOR CLOUDY    28  25  86 CALM      30.24R
VALLEY CITY AR CLOUDY    25  25 100 N7        30.23R WCI  17
CANDO          CLOUDY    27  25  93 NW6       30.22R WCI  20
CAVALIER APRT    N/A     28  25  86 N5        30.22R WCI  23
GWINNER        CLOUDY    28  23  80 N9        30.22R WCI  20
SHEYENNE NWR     N/A     27  20  74 N5        29.95S WCI  22
ROLLA          CLOUDY    27  25  93 W6        30.18S WCI  20
 ***** THE ABOVE OBSERVATIONS ARE NON NWS ARE NOT QUALITY
       CONTROLLED AND MAY MIS-REPORT RAIN FOR SNOW...
$$

  *****  WEATHER ACROSS NORTHERN MINNESOTA  *****

CITY           SKY/WX    TMP DP  RH WIND       PRES   REMARKS
FLAG ISLAND    CLOUDY    19  18  93 NW9       30.17R WCI   9
WARROAD        CLOUDY    23  19  86 NW6       30.19R WCI  16
ROSEAU         CLOUDY    27  21  80 N6        30.18S WCI  20
HALLOCK        CLOUDY    28  25  86 N9        30.21R WCI  20
THF RVR FALLS  CLOUDY    24  19  81 N8        30.20R WCI  15
BAUDETTE       CLOUDY    21  19  92 W8        30.17R WCI  11
WASKISH        CLOUDY    21  19  93 NW6       30.17R WCI  14
CROOKSTON      CLOUDY    27  21  80 N9        30.22R WCI  17
STEPHEN NDAWN    N/A     27  23  86 N6          N/A  WCI  20
GREENBUSH NDAW   N/A     25  21  86 NW8         N/A  WCI  16
$$
  *****  WEATHER ACROSS CENTRAL AND WEST MINNESOTA  *****

CITY           SKY/WX    TMP DP  RH WIND       PRES   REMARKS
FOSSTON        CLOUDY    23  19  86 NW6       30.19R WCI  16
BEMIDJI        CLOUDY    22  19  90 N6        30.16R WCI  14
PARK RAPIDS    CLOUDY    24  17  74 NW6       30.15R WCI  17
ELBOW LAKE     CLOUDY    26  22  85 N8        30.20R WCI  17
WADENA         CLOUDY    25  19  80 NW5       30.17R WCI  19
DETROIT LAKES  CLOUDY    27  21  80 N6        30.19R WCI  20
MOORHEAD       CLOUDY    27  21  80 N7        30.23R WCI  19
FERGUS FALLS   CLOUDY    27  19  74 NW10      30.24R WCI  17
MORRIS MN      CLOUDY    28  21  74 NW7       30.19R WCI  21
STAPLES        CLOUDY    25  19  80 NW6       30.17R WCI  18
$$
  *****  WEATHER ELSEWHERE ACROSS MINNESOTA  *****

CITY           SKY/WX    TMP DP  RH WIND       PRES   REMARKS
DULUTH         CLOUDY    27  22  81 N13       30.09R WCI  16
INTRNTL FALLS  CLOUDY    25  22  88 NW7       30.14R WCI  17
ELY            CLOUDY    21  21 100 NW6       30.11R WCI  14
CLOQUET        CLOUDY    27  21  80 NW7       30.11R WCI  19
WHEATON        CLOUDY   N/A N/A N/A NW9       30.23R
BRAINERD       CLOUDY    25  20  81 NW9       30.16R WCI  15
HIBBING        CLOUDY    24  20  84 N8        30.11R WCI  15
ALEXANDRIA     CLOUDY    25  20  81 NW9       30.17R WCI  15
SAINT CLOUD    CLOUDY    29  23  78 NW8       30.16R WCI  21
MINNEAPOLIS    CLOUDY    31  21  66 NW7       30.16R WCI  24
$$

  *****  WEATHER ACROSS SOUTH DAKOTA  *****

CITY           SKY/WX    TMP DP  RH WIND       PRES   REMARKS
SIOUX FALLS    CLOUDY    30  29  96 N3        30.18R
BROOKINGS      CLOUDY    27  25  93 CALM      30.18R
WATERTOWN      CLOUDY    26  22  84 NW8       30.16R WCI  18
HURON          CLOUDY    29  28  96 NW6       30.21R WCI  23
SISSETON         N/A     28  20  71 N12       30.20R WCI  18
ABERDEEN       CLOUDY    28  21  75 N5        30.21R WCI  23
MITCHELL       CLOUDY    30  29  96 N7        30.22R WCI  23
PIERRE         CLOUDY    28  26  92 N3        30.20R
MOBRIDGE       CLOUDY    27  23  85 CALM      30.17R
RAPID CITY     CLOUDY    23  19  85 CALM      30.13R
$$

  *****  SOME WEATHER IN NEARBY STATES *****

CITY           SKY/WX    TMP DP  RH WIND       PRES   REMARKS
GLASGOW MT     CLOUDY    26  23  88 W7        30.13S WCI  18
GREAT FALLS MT CLEAR     20  17  88 SW12      30.12F WCI   8
CHEYENNE WY    CLOUDY    23  15  71 NW8       30.08R WCI  14
SCOTTSBLUFF NE CLEAR     18  13  80 N8        30.15S WCI   8
OMAHA NE       PTCLDY    30  25  81 NW3       30.22R
DES MOINES IA  CLOUDY    35  31  85 W6        30.20R
DAVENPORT IA   CLOUDY    35  33  92 W9        30.15R
CHICAGO IL     CLOUDY    37  30  75 W9        30.09R
EAU CLAIRE WI  CLOUDY    30  21  69 N6        30.13R WCI  24
LA CROSSE WI   CLOUDY    34  24  67 N13       30.14R WCI  25
$$

  *****  SOME NATIONAL WEATHER *****

CITY           SKY/WX    TMP DP  RH WIND       PRES   REMARKS
LA GUARDIA NY  MOCLDY    44  29  55 W18       29.91R
RALEIGH NC     CLEAR     37  31  78 CALM      30.14R
ATLANTA GA     PTCLDY    39  30  70 NW8       30.20R
NEW ORLEANS LA MOCLDY    57  38  48 E12       30.18R
OKLAHOMA CITY  CLOUDY    32  26  78 N6        30.10R
ALBUQUERQUE NM CLOUDY    33  17  51 N9        29.97R
SALT LAKE CITY PTCLDY    26  23  88 CALM      30.16R
LOS ANGELES CA PTCLDY    58  23  26 N7        29.96R
BOISE ID       PTCLDY    19  17  92 S3        30.31S
SEATTLE WA     LGT RAIN  45  41  86 S10       30.30F
$$

*** WEATHER ACROSS MANITOBA...SASKATCHEWAN AND ONTARIO ***
                ***ONTARIO***

CITY           SKY/WX    TMP DP  RH WIND       PRES   REMARKS
GERALDTON      LGT SNOW  27  25  93 NW10G17   29.97R WCI  17
THUNDER BAY    CLOUDY    27  21  80 W8G17     30.08R WCI  18
SIOUX LOOKOUT  FLURRIES  21  19  93 NW5       30.11R WCI  15
TORONTO        MOCLDY    37  30  75 W21       29.82R
BIG TROUT LK   CLOUDY    21  19  93 NW6       30.15R WCI  14
PICKLE LAKE    FLURRIES  19  16  86 N5        30.09R WCI  13
DRYDEN         CLOUDY    21  19  93 N3        30.12R
KENORA         FLURRIES  19  18  93 NW5       30.14R WCI  13
$$
                *** MANITOBA***

CITY           SKY/WX    TMP DP  RH WIND       PRES   REMARKS
BRANDON        CLOUDY    27  25  93 CALM      30.18S
DAUPHIN        CLOUDY    25  25 100 CALM      30.18S
ISLAND LAKE    NOT AVBL
PILOT MOUND      N/A     27  25  93 NW1         N/A
THE PAS        FOG       18  16  93 SE5       30.18R VSB 1/2 WCI  11
THOMPSON       LGT SNOW  16  14  93 SE2       30.21R
WINNIPEG       CLOUDY    25  21  86 N8        30.21R WCI  16
LYNN LAKE      FLURRIES   9   7  92 SE2       30.13S
CHURCHILL      LGT SNOW  14  12  92 SW9       30.23F FOG     WCI   2
GILLAM         SNOW      12  10  92 CALM      30.24R VSB 1/2
$$
                ***SASKATCHEWAN***

CITY           SKY/WX    TMP DP  RH WIND       PRES   REMARKS
ESTEVAN        FLURRIES  25  23  93 S5        30.16R WCI  19
KINDERSLEY     CLOUDY    23  21  93 CALM      30.08S
LLOYDMINSTER   FOG       19  18  93 S8        30.06F VSB 1   WCI   9
PRINCE ALBERT  FRZ DRZL  23  23 100 N3        30.13S FOG
REGINA         CLOUDY    27  25  93 W5        30.12S WCI  21
YORKTON        CLOUDY    28  23  80 SW3       30.14S
N. BATTLEFORD  CLOUDY    23  23 100 VRB2      30.13S
LA RONGE       FRZ DRZL  27  25  93 SW6       30.11S WCI  20
SASKATOON      CLOUDY    28  23  80 W3        30.13S
SWIFT CURRENT  CLOUDY    21  21 100 W9        30.06S WCI  11
$$
NOTE: THESE ARE AUTOMATED STATIONS WITH LIMITED QUALITY CONTROL
      "FAIR" INDICATES FEW OR NO CLOUDS BELOW 12,000 FEET WITH NO
      SIGNIFICANT WEATHER AND/OR OBSTRUCTIONS TO VISIBILITY.
      SKY/WX - SKY CONDITION AND SIGNIFICANT WEATHER.
      TMP - AIR TEMPERATURE.    DP   - DEWPOINT TEMPERATURE.
      RH  - RELATIVE HUMIDITY.  PRES - PRESSURE.
      HX  - HEAT INDEX.         WCI  - WIND CHILL INDEX.
$




USA.gov is the U.S. government's official web portal to all federal, state and local government web resources and services.